Location: Boulin
(43.2500°N, 0.1333°E)
Time: 03:07:28
(UTC+00:00)

Cosmos 1898 Rocket - Pass Details

Date: 11 December 2025
Orbit: 749 x 779 km, 74.0° (Epoch: 24 January)

Event Time Altitude Azimuth Distance (km) Brightness Sun altitude
Rises 18:20:34 0° 195° (SSW) 3,180 7.1 -20.4°
Reaches altitude 10° 18:22:55 10° 194° (SSW) 2,260 6.3 -20.8°
Maximum altitude 18:28:02 80° 109° (ESE) 767 3.3 -21.7°
Enters shadow 18:30:01 39° 28° (NNE) 1,129 4.0 -22.1°
